Вернуться в каталог

STARLINK-11371

АктивенСвязьVLEO
NORAD 62879·PAYLOAD·🇺🇸 United States

Запущен Feb 4, 2025 с Cape Canaveral Space Force Station

Loading…

Ближайшие Пролёты (ближайшие 24 часа)

TLE

СвежийSource: CelesTrak SupGP

Эпоха: Sep 14, 2026, 20:40 UTC

1 62879C 25024A   26257.86159722 -.00043112  00000+0 -33497-3 0  2575
2 62879  42.9999 121.4850 0001572 275.5136 140.4360 15.70851317    18

Отслеживайте STARLINK-11371 в реальном времени с AllMySat

Download on the App Store